This is the latest recevied weather packets stored in our database for station/object OE-11349. If no packets are shown the sender has not sent any weather packets the latest 10 day(s).
| Time | Temp. | Humidity | Pressure | Rain* | Wind** | Luminosity | Snow |
|---|---|---|---|---|---|---|---|
| 1788018908 | 14.44° C | 70% | 852.9 hPa | - | - | 145 W/m² | - |
| 1788018082 | 15° C | 70% | 852.8 hPa | - | - | 234 W/m² | - |
| 1788017709 | 15° C | 67% | 853 hPa | - | - | 227 W/m² | - |
| 1788017109 | 15.56° C | 68% | 853.3 hPa | - | - | 220 W/m² | - |
| 1788016282 | 15° C | 66% | 853.3 hPa | - | - | 158 W/m² | - |
| 1788015909 | 15° C | 66% | 853.4 hPa | - | - | 186 W/m² | - |
| 1788015309 | 15° C | 70% | 853.4 hPa | - | - | 172 W/m² | - |
| 1788014482 | 14.44° C | 70% | 853.3 hPa | - | - | 172 W/m² | - |
| 1788014109 | 14.44° C | 70% | 853.3 hPa | - | - | 131 W/m² | - |
| 1788013508 | 14.44° C | 70% | 853.3 hPa | - | - | 158 W/m² | - |
| 1788012682 | 15° C | 70% | 853.3 hPa | - | - | 248 W/m² | - |
| 1788012308 | 15° C | 70% | 853.4 hPa | - | - | 213 W/m² | - |
| 1788011709 | 15° C | 69% | 853.4 hPa | - | - | 165 W/m² | - |
| 1788010882 | 15° C | 69% | 853.4 hPa | - | - | 193 W/m² | - |
| 1788010509 | 15° C | 66% | 853.4 hPa | - | - | 337 W/m² | - |
| 1788009908 | 14.44° C | 66% | 853.5 hPa | - | - | 241 W/m² | - |
| 1788009082 | 14.44° C | 66% | 853.5 hPa | - | - | 206 W/m² | - |
| 1788008709 | 14.44° C | 66% | 853.6 hPa | - | - | 234 W/m² | - |
| 1788008109 | 14.44° C | 67% | 853.5 hPa | - | - | 186 W/m² | - |
| 1788007282 | 13.89° C | 70% | 853.5 hPa | - | - | 206 W/m² | - |
| 1788006909 | 14.44° C | 70% | 853.6 hPa | - | - | 241 W/m² | - |
| 1788006309 | 14.44° C | 73% | 853.6 hPa | - | - | 193 W/m² | - |
| 1788005481 | 13.89° C | 71% | 853.7 hPa | - | - | 241 W/m² | - |
| 1788005109 | 14.44° C | 71% | 853.8 hPa | - | - | 193 W/m² | - |
| 1788004509 | 13.89° C | 68% | 853.8 hPa | - | - | 289 W/m² | - |
* Rain since midnight (hover to see other rain measurements)
** Current wind speed in m/s (hover to see current wind gust speed)